IRIDIUM 162 (43482 NORAD) Tracking and Keplerian Element Data

This shows tracking and keplerian element data for the satellite.

Feedback or suggestion? Click here.




ElementValue
Catalog43482
NameIRIDIUM 162
Epoch Orbit9795
Epoch Day91.86561837
Epoch Year2020
RAAN316.3567
Inclination86.4474
Eccentricity0.0002024
Argument of Perigee98.4573
Mean Anonmoly261.6857
Mean Motion14.43280761
Decay Rate8.2E-07
L11 43482U 18047G 20091.86561837 .00000082 00000-0 18420-4 0 9996
L22 43482 86.4474 316.3567 0002024 98.4573 261.6857 14.43280761 97952

Live tracking and technical data element details for IRIDIUM 162 (NORAD 43482). IRIDIUM 162 can be tracked NOW for your location showing map with azimuth and elevation plus other details from your city location.

Track the satellite on the map from your city or location and see movement details for azimuth, elevation, latitude, longitude, range, height, and movement on the map or in text.







IsCatalogInMostPopularTable: catalog: 43482, numindb: 331
Update: records affected: 1



GetName: 43482 IRIDIUM 162

Hit Count: updated at: Fri, 03 Apr 2020 07:19:40 GMT